EW2971 Weather Reports


time (UTC)temp
C
wind
direction
speed
KPH
gust
KPH
rain 1hr
cm
rain 24hr
cm
rain mn
cm
humidity
%
barometer
mb
20260505090542 9 0 0.0 1.6 0.03 0.03 0.03 75 1009.9
20260505090048 9 0 0.0 1.6 0.03 0.03 0.03 74 1009.9
20260505085545 9 0 0.0 0.0 0.03 0.03 0.03 74 1009.9
20260505085042 9 0 0.0 3.2 0.03 0.03 0.03 74 1009.8
20260505084550 9 0 0.0 3.2 0.03 0.03 0.03 74 1009.8
20260505084041 9 0 0.0 3.2 0.03 0.03 0.03 74 1009.9
20260505083541 9 0 0.0 3.2 0.03 0.03 0.03 75 1009.9
20260505083046 9 0 0.0 3.2 0.03 0.03 0.03 75 1009.9
20260505082541 9 0 0.0 3.2 0.03 0.03 0.03 75 1009.9
20260505082042 9 0 0.0 0.0 0.00 0.00 0.00 75 1009.8
20260505081559 9 0 0.0 0.0 0.00 0.00 0.00 74 1009.6
20260505081041 9 0 0.0 0.0 0.00 0.00 0.00 74 1009.3
20260505080543 9 0 0.0 0.0 0.00 0.00 0.00 73 1009.1
20260505080105 9 0 0.0 0.0 0.00 0.00 0.00 72 1009.1
20260505075542 9 0 0.0 0.0 0.00 0.00 0.00 73 1009.2
20260505075043 9 0 0.0 0.0 0.00 0.00 0.00 71 1009.0
20260505074551 9 0 0.0 0.0 0.00 0.00 0.00 72 1009.0
20260505074044 9 0 0.0 0.0 0.00 0.00 0.00 72 1009.0
20260505073542 9 0 0.0 0.0 0.00 0.00 0.00 72 1009.1
20260505073051 9 0 0.0 0.0 0.00 0.00 0.00 70 1009.2
20260505072543 9 0 0.0 0.0 0.00 0.00 0.00 69 1008.9
20260505072041 9 0 0.0 0.0 0.00 0.00 0.00 69 1008.9
20260505071555 9 0 0.0 0.0 0.00 0.00 0.00 68 1008.8
20260505071042 9 0 0.0 0.0 0.00 0.00 0.00 67 1008.7
20260505070542 9 0 0.0 0.0 0.00 0.00 0.00 66 1009.1
20260505070052 9 0 0.0 0.0 0.00 0.00 0.00 66 1008.8
20260505065542 9 0 0.0 0.0 0.00 0.00 0.00 66 1008.9
20260505065041 10 0 0.0 0.0 0.00 0.00 0.00 66 1008.8
20260505064555 10 0 0.0 0.0 0.00 0.00 0.00 65 1008.8
20260505064046 10 0 0.0 3.2 0.00 0.00 0.00 64 1009.0
20260505063542 10 0 0.0 3.2 0.00 0.00 0.00 62 1008.7
20260505063119 10 48 0.0 6.4 0.00 0.00 0.00 60 1009.0
20260505062542 10 0 1.6 6.4 0.00 0.00 0.00 59 1009.2
20260505062042 10 54 1.6 4.8 0.00 0.00 0.00 58 1009.4
20260505061623 10 0 0.0 6.4 0.00 0.00 0.00 58 1009.4
20260505061041 10 57 1.6 6.4 0.00 0.00 0.00 58 1008.8
20260505060541 10 57 1.6 6.4 0.00 0.00 0.00 57 1008.9
20260505060105 10 0 0.0 6.4 0.00 0.00 0.00 58 1009.0
20260505055542 10 36 0.0 6.4 0.00 0.00 0.00 56 1009.1
20260505055046 10 90 1.6 8.0 0.00 0.00 0.00 56 1009.0
20260505054606 11 46 1.6 8.0 0.00 0.00 0.00 56 1009.1
20260505054043 11 38 1.6 8.0 0.00 0.00 0.00 55 1008.9
20260505053542 11 35 3.2 8.0 0.00 0.00 0.00 55 1009.0
20260505053059 11 44 3.2 8.0 0.00 0.00 0.00 54 1008.8
20260505052542 11 44 3.2 12.9 0.00 0.00 0.00 53 1008.7
20260505052043 11 39 4.8 12.9 0.00 0.00 0.00 54 1008.7
20260505051612 11 42 3.2 8.0 0.00 0.00 0.00 52 1008.9
20260505051044 11 51 3.2 9.7 0.00 0.00 0.00 53 1009.2
20260505050542 11 44 3.2 9.7 0.00 0.00 0.00 54 1009.2
20260505041552 12 280 3.2 11.3 0.00 0.00 0.00 42 1009.3
20260505041041 12 46 3.2 9.7 0.00 0.00 0.00 41 1009.1
20260505040544 12 46 1.6 9.7 0.00 0.00 0.00 42 1008.9
20260505040100 12 87 3.2 12.9 0.00 0.00 0.00 42 1008.9
20260505035546 13 309 4.8 12.9 0.00 0.00 0.00 41 1008.9
20260505035041 13 31 3.2 16.1 0.00 0.00 0.00 41 1008.8
20260505034553 13 52 4.8 16.1 0.00 0.00 0.00 41 1009.0
20260505034045 13 16 4.8 16.1 0.00 0.00 0.00 41 1008.8
20260505033542 13 310 3.2 16.1 0.00 0.00 0.00 41 1008.5
20260505033051 13 58 6.4 16.1 0.00 0.00 0.00 41 1008.2
20260505032542 13 40 8.0 14.5 0.00 0.00 0.00 40 1008.1
20260505032042 13 37 4.8 19.3 0.00 0.00 0.00 40 1008.3
20260505031556 13 46 4.8 19.3 0.00 0.00 0.00 41 1008.5
20260505031044 13 46 6.4 20.9 0.00 0.00 0.00 40 1008.2
20260505030545 13 37 8.0 20.9 0.00 0.00 0.00 41 1008.0
20260505030057 13 15 6.4 19.3 0.00 0.00 0.00 41 1008.1
20260505025542 13 45 8.0 19.3 0.00 0.00 0.00 41 1007.9
20260505025045 13 49 8.0 16.1 0.00 0.00 0.00 41 1008.0
20260505024556 13 340 8.0 16.1 0.00 0.00 0.00 41 1007.8
20260505024042 13 39 6.4 19.3 0.00 0.00 0.00 40 1007.5
20260505023544 14 263 8.0 19.3 0.00 0.00 0.00 40 1007.5
20260505023056 14 36 6.4 14.5 0.00 0.00 0.00 40 1007.2
20260505022542 14 42 6.4 19.3 0.00 0.00 0.00 40 1007.2
20260505022042 14 53 4.8 19.3 0.00 0.00 0.00 41 1007.3
20260505021557 14 29 6.4 17.7 0.00 0.00 0.00 41 1006.7
20260505021042 14 43 4.8 17.7 0.00 0.00 0.00 41 1006.6
20260505020542 14 39 6.4 17.7 0.00 0.00 0.00 41 1006.9
20260505015543 15 88 6.4 19.3 0.00 0.00 0.00 40 1006.9
20260505015045 15 333 6.4 14.5 0.00 0.00 0.00 39 1006.4
20260505014554 15 9 6.4 16.1 0.00 0.00 0.00 38 1006.4
20260505014041 16 37 6.4 22.5 0.00 0.00 0.00 38 1006.2
20260505013543 16 49 6.4 22.5 0.00 0.00 0.00 37 1006.0
20260505013057 16 32 8.0 20.9 0.00 0.00 0.00 37 1006.1
20260505012543 16 315 6.4 16.1 0.00 0.00 0.00 36 1005.9
20260505012041 16 343 4.8 24.1 0.00 0.00 0.00 36 1006.0
20260505011553 16 55 6.4 24.1 0.00 0.00 0.00 35 1005.9
20260505011042 17 49 11.3 24.1 0.00 0.00 0.00 34 1005.8
20260505010542 17 302 8.0 16.1 0.00 0.00 0.00 33 1005.7
20260505010112 17 5 6.4 14.5 0.00 0.00 0.00 33 1005.5
20260505005541 18 310 4.8 14.5 0.00 0.00 0.00 33 1005.3
20260505005042 18 36 6.4 14.5 0.00 0.00 0.00 33 1005.2
20260505004553 18 349 6.4 14.5 0.00 0.00 0.00 32 1005.2
20260505004041 18 269 6.4 14.5 0.00 0.00 0.00 32 1005.1
20260505003541 18 17 4.8 27.4 0.00 0.00 0.00 32 1004.8
20260505003057 19 33 8.0 27.4 0.00 0.00 0.00 31 1004.8
20260505002541 20 39 8.0 17.7 0.00 0.00 0.00 31 1004.9
20260505002044 20 44 6.4 17.7 0.00 0.00 0.00 32 1004.6
20260505001600 20 51 4.8 17.7 0.00 0.00 0.00 32 1004.6
20260505001044 20 18 6.4 16.1 0.00 0.00 0.00 31 1004.6
20260505000546 20 6 4.8 19.3 0.00 0.00 0.00 31 1004.6
20260505000057 20 27 4.8 19.3 0.00 0.00 0.00 31 1004.7
20260504235545 20 325 6.4 22.5 0.00 0.00 0.00 30 1004.7
20260504235042 21 37 9.7 22.5 0.00 0.00 0.00 30 1004.5
20260504234557 21 53 8.0 17.7 0.00 0.00 0.00 29 1004.5
20260504234045 21 66 6.4 19.3 0.00 0.00 0.00 29 1004.4
20260504233542 21 4 6.4 19.3 0.00 0.00 0.00 30 1004.4
20260504233107 21 42 3.2 20.9 0.00 0.00 0.00 30 1004.4
20260504232541 22 44 8.0 20.9 0.00 0.00 0.00 29 1004.2
20260504232043 22 37 8.0 17.7 0.00 0.00 0.00 28 1004.1
20260504231552 22 47 3.2 14.5 0.00 0.00 0.00 28 1004.0
20260504231041 22 49 6.4 14.5 0.00 0.00 0.00 28 1004.0
20260504230541 23 38 4.8 14.5 0.00 0.00 0.00 28 1003.8
20260504230057 23 53 4.8 19.3 0.00 0.00 0.00 28 1003.6
20260504225545 23 39 6.4 19.3 0.00 0.00 0.00 27 1003.5
20260504225042 23 59 6.4 12.9 0.00 0.00 0.00 29 1003.4
20260504224554 23 37 3.2 14.5 0.00 0.00 0.00 30 1003.2
20260504224043 23 35 6.4 16.1 0.00 0.00 0.00 28 1003.1
20260504223542 24 72 6.4 16.1 0.00 0.00 0.00 30 1003.1
20260504223058 24 48 4.8 14.5 0.00 0.00 0.00 28 1002.9
20260504222541 24 240 8.0 14.5 0.00 0.00 0.00 27 1002.7
20260504222041 24 12 6.4 16.1 0.00 0.00 0.00 27 1002.6
20260504221550 24 51 8.0 16.1 0.00 0.00 0.00 28 1002.5
20260504221042 25 15 6.4 11.3 0.00 0.00 0.00 28 1002.3
20260504220542 25 6 6.4 12.9 0.00 0.00 0.00 29 1002.3
20260504220058 25 30 4.8 12.9 0.00 0.00 0.00 29 1002.2
20260504215543 25 123 6.4 12.9 0.00 0.00 0.00 31 1002.2
20260504215042 25 338 4.8 12.9 0.00 0.00 0.00 30 1002.2
20260504214556 25 37 3.2 19.3 0.00 0.00 0.00 29 1002.2
20260504214045 25 43 4.8 19.3 0.00 0.00 0.00 29 1002.2
20260504213545 26 31 6.4 19.3 0.00 0.00 0.00 29 1002.2
20260504213047 26 284 1.6 14.5 0.00 0.00 0.00 33 1002.2
20260504212544 25 48 4.8 14.5 0.00 0.00 0.00 31 1002.0
20260504212048 25 26 4.8 17.7 0.00 0.00 0.00 30 1002.1
20260504211551 26 79 4.8 17.7 0.00 0.00 0.00 32 1002.0
20260504211046 26 352 4.8 9.7 0.00 0.00 0.00 31 1001.9
20260504210545 26 354 3.2 9.7 0.00 0.00 0.00 32 1002.1
20260504210054 26 16 3.2 9.7 0.00 0.00 0.00 32 1002.0
20260504205540 26 35 4.8 11.3 0.00 0.00 0.00 32 1001.9
20260504205042 26 30 4.8 11.3 0.00 0.00 0.00 34 1001.9
20260504204556 26 242 1.6 14.5 0.00 0.00 0.00 31 1001.8
20260504204043 26 287 1.6 14.5 0.00 0.00 0.00 32 1001.9
20260504203541 26 328 1.6 11.3 0.00 0.00 0.00 31 1001.7
20260504203103 26 297 4.8 22.5 0.00 0.00 0.00 31 1001.8
20260504202543 26 278 4.8 22.5 0.00 0.00 0.00 31 1001.8
20260504202042 26 18 6.4 22.5 0.00 0.00 0.00 30 1001.8
20260504201555 26 278 6.4 22.5 0.00 0.00 0.00 30 1001.8
20260504201041 27 226 8.0 22.5 0.00 0.00 0.00 30 1001.8
20260504200542 27 6 3.2 12.9 0.00 0.00 0.00 31 1001.8
20260504200046 27 344 3.2 16.1 0.00 0.00 0.00 30 1001.6
20260504195541 27 250 3.2 16.1 0.00 0.00 0.00 29 1001.7
20260504195042 27 267 3.2 14.5 0.00 0.00 0.00 30 1001.6
20260504194546 27 278 4.8 14.5 0.00 0.00 0.00 30 1001.7
20260504194042 27 47 3.2 19.3 0.00 0.00 0.00 30 1001.6
20260504193542 27 56 6.4 19.3 0.00 0.00 0.00 29 1001.6
20260504193051 27 61 3.2 12.9 0.00 0.00 0.00 30 1001.5
20260504192545 27 283 4.8 14.5 0.00 0.00 0.00 27 1001.4
20260504192041 27 287 6.4 14.5 0.00 0.00 0.00 27 1001.4
20260504191550 28 22 4.8 14.5 0.00 0.00 0.00 27 1001.3
20260504191042 28 24 3.2 16.1 0.00 0.00 0.00 26 1001.4
20260504190543 27 0 1.6 16.1 0.00 0.00 0.00 28 1001.4
20260504190112 27 39 4.8 16.1 0.00 0.00 0.00 28 1001.3
20260504185541 28 210 3.2 9.7 0.00 0.00 0.00 27 1001.3
20260504185040 27 278 1.6 17.7 0.00 0.00 0.00 28 1001.1
20260504184550 27 243 3.2 20.9 0.00 0.00 0.00 28 1001.2
20260504184043 27 266 3.2 20.9 0.00 0.00 0.00 28 1001.3
20260504183542 27 297 4.8 16.1 0.00 0.00 0.00 26 1001.5
20260504183050 27 275 4.8 16.1 0.00 0.00 0.00 28 1001.3
20260504182544 27 277 4.8 12.9 0.00 0.00 0.00 28 1001.5
20260504182045 27 261 4.8 17.7 0.00 0.00 0.00 29 1001.5
20260504181555 27 272 6.4 17.7 0.00 0.00 0.00 26 1001.6
20260504181045 27 356 1.6 12.9 0.00 0.00 0.00 29 1001.4
20260504180549 27 41 4.8 12.9 0.00 0.00 0.00 27 1001.6
20260504180051 27 319 3.2 16.1 0.00 0.00 0.00 26 1001.6
20260504175545 27 44 3.2 16.1 0.00 0.00 0.00 29 1001.7
20260504175045 26 285 3.2 11.3 0.00 0.00 0.00 30 1001.8
20260504174558 26 0 1.6 14.5 0.00 0.00 0.00 31 1001.7
20260504174045 26 210 4.8 14.5 0.00 0.00 0.00 30 1001.8
20260504173544 26 335 4.8 12.9 0.00 0.00 0.00 31 1001.8
20260504173052 26 302 1.6 9.7 0.00 0.00 0.00 31 1001.9
20260504172544 26 276 3.2 9.7 0.00 0.00 0.00 31 1001.9
20260504172045 26 329 1.6 14.5 0.00 0.00 0.00 33 1001.9
20260504171549 25 262 1.6 16.1 0.00 0.00 0.00 34 1002.0
20260504171043 25 269 4.8 16.1 0.00 0.00 0.00 35 1002.0
20260504170541 25 279 3.2 11.3 0.00 0.00 0.00 34 1002.0
20260504151045 20 0 0.0 3.2 0.00 0.00 0.00 43 1002.1
20260504150542 20 269 0.0 3.2 0.00 0.00 0.00 45 1002.1
20260504141042 17 0 1.6 14.5 0.00 0.00 0.00 51 1002.5
20260504140542 16 262 1.6 11.3 0.00 0.00 0.00 52 1002.6
20260504130542 11 0 0.0 0.0 0.00 0.00 0.00 78 1002.1
20260504110544 8 0 0.0 0.0 0.00 0.00 0.00 80 1001.9
20260504100543 8 0 0.0 0.0 0.00 0.00 0.00 79 1002.2